GFSGL_sfc_30mbdewp_021.txt.gz
Dewpoint
69 69 70 69 69 65 64 62 62 64 64 65 65 64 63 63 64 64 63 63 63 62 63 63 62 63 60 59 60 60 58 58 54 51 52 56 58 58 58 59 59 57 55
68 69 69 68 64 65 62 62 63 63 63 63 64 64 64 63 63 64 63 61 62 61 61 62 62 61 62 62 61 60 59 59 57 55 55 55 56 58 59 59 58 56 55
67 68 68 64 64 63 62 63 63 63 63 63 64 64 63 63 64 64 63 62 62 62 61 61 61 61 60 61 60 59 58 59 58 58 55 55 56 57 56 56 56 56 56
67 67 66 64 65 63 63 62 62 60 62 62 63 63 64 64 64 63 62 62 62 62 62 62 62 60 60 60 60 60 60 59 57 58 57 54 54 55 55 54 53 52 52
68 67 66 65 64 64 64 63 60 61 60 62 62 63 63 63 62 62 62 62 63 62 61 62 61 61 61 60 58 57 58 58 55 55 54 53 52 52 51 52 52 52 52
68 67 67 65 65 63 63 62 61 61 61 63 62 62 62 61 60 60 61 62 62 61 60 60 61 60 60 59 59 60 60 58 57 57 54 53 55 55 52 53 52 50 49
68 68 66 65 65 63 61 62 62 62 62 61 62 63 62 63 61 60 61 62 62 61 61 61 60 58 59 57 57 57 57 58 59 58 57 56 54 54 54 53 53 53 53
68 67 66 65 65 64 62 61 62 63 61 61 62 63 63 63 62 61 60 62 62 62 62 62 61 59 58 57 57 56 56 56 56 55 54 54 54 53 53 54 54 54 54
67 66 66 65 65 64 62 62 62 63 62 61 62 63 63 63 62 60 60 62 61 60 62 60 59 57 58 54 54 55 54 54 54 52 52 52 53 53 54 53 52 52 49
67 66 66 65 65 63 62 62 63 63 62 62 62 63 63 63 61 60 60 60 60 60 59 57 55 56 54 53 54 54 53 53 52 51 51 52 52 52 53 54 53 52 49
67 67 66 65 64 64 64 64 64 64 63 63 62 63 63 63 62 59 59 59 59 58 58 56 55 52 52 51 50 54 53 50 50 49 49 48 49 50 51 51 52 51 51
67 66 66 66 64 64 64 64 64 64 64 63 63 62 62 63 62 60 60 58 59 57 56 55 54 51 51 50 49 49 48 47 47 47 47 46 47 47 47 48 50 52 54
67 66 66 65 65 65 64 64 64 64 64 63 61 60 59 61 61 56 56 55 55 56 54 52 50 48 49 48 46 46 45 47 46 45 44 44 44 44 47 45 47 52 54
65 65 65 65 65 65 64 64 63 62 61 59 58 57 60 59 58 54 53 53 51 51 49 50 50 49 47 46 46 45 45 44 42 41 41 40 41 40 39 40 45 50 52
64 64 64 63 63 60 56 56 58 59 56 57 58 59 59 58 56 54 53 52 51 49 49 50 50 49 48 48 45 44 42 41 39 37 36 36 35 34 35 40 45 50 50
62 61 61 60 58 57 55 53 45 46 49 52 54 58 54 51 48 46 45 44 45 45 48 48 48 48 47 44 42 39 39 38 36 35 34 34 32 33 34 40 44 47 49
58 57 57 58 58 56 55 54 52 46 44 45 46 47 48 45 44 44 44 43 42 44 46 47 47 46 43 40 36 34 33 34 37 33 32 32 32 32 34 39 43 46 48
57 55 55 55 56 57 56 56 54 51 49 46 44 44 43 44 44 44 44 45 45 45 47 46 44 41 37 35 34 32 30 31 31 31 31 31 30 31 33 36 41 45 46
57 55 54 53 55 57 58 56 53 52 49 48 46 45 43 43 43 43 43 43 42 42 42 41 38 36 35 35 32 30 29 30 31 32 30 30 29 29 29 32 39 42 44
58 58 59 58 57 57 56 54 52 50 49 48 48 48 46 45 44 43 43 42 41 40 39 38 37 37 36 32 29 27 29 31 30 29 29 29 29 28 28 29 36 39 40
58 56 55 55 56 55 54 53 52 50 49 49 49 48 47 45 42 41 41 41 41 40 40 39 38 37 32 29 28 29 30 29 29 29 29 28 29 28 28 28 30 36 38
55 56 54 53 54 54 53 53 52 51 50 49 48 48 46 45 43 42 41 41 41 42 41 42 37 31 27 25 29 29 29 28 28 28 28 28 28 28 28 28 28 30 35
55 56 56 56 56 55 54 53 52 51 50 48 46 46 46 46 43 41 41 41 41 41 41 37 32 28 25 24 29 30 29 27 27 29 28 28 27 27 27 27 28 28 30
54 55 55 55 55 54 54 54 52 51 49 48 47 46 46 46 45 42 40 41 40 39 37 33 28 26 23 23 28 28 28 29 30 28 30 29 28 28 26 26 27 28 27
53 53 53 54 54 54 53 52 49 48 48 46 43 43 44 45 45 43 40 40 40 39 36 32 27 25 20 22 23 25 25 22 30 28 28 28 29 28 27 25 27 26 28
44 48 50 52 52 52 52 50 49 48 46 41 41 42 43 44 44 44 41 40 39 37 34 30 27 24 18 19 19 17 15 22 29 27 27 26 27 25 24 24 24 23 25

GFSGL_sfc_30mbdewp_024.txt.gz
Dewpoint
69 70 70 69 70 72 71 70 68 66 66 66 65 64 64 63 63 64 62 59 60 61 60 60 60 61 59 55 55 57 55 54 51 50 50 52 54 58 57 58 58 57 56
68 70 70 70 70 71 70 69 67 65 65 67 67 66 65 63 63 63 62 58 60 60 60 60 60 59 59 61 57 56 55 55 54 54 55 54 55 54 56 58 58 56 55
66 67 69 69 70 69 69 66 64 63 63 65 65 64 64 63 64 64 63 61 61 60 60 60 59 58 58 57 58 55 53 55 55 55 55 54 54 54 54 56 56 55 54
64 66 69 70 70 68 68 66 62 62 63 63 62 63 65 65 64 62 63 62 61 60 61 61 60 59 58 57 57 56 57 57 56 53 53 55 54 54 55 54 52 49 48
64 65 68 71 69 68 69 66 64 63 62 62 64 64 65 63 61 62 61 61 61 61 61 60 60 60 60 60 57 55 57 55 52 50 49 51 52 54 54 52 50 50 51
65 66 69 70 68 69 69 67 64 63 63 64 63 62 62 60 58 60 62 60 60 61 60 60 60 62 61 60 59 59 58 56 55 55 51 53 55 54 52 51 51 50 49
67 69 69 70 69 68 68 67 65 62 60 63 63 63 61 61 60 60 60 60 59 62 62 63 61 62 60 60 60 59 58 58 57 57 56 54 53 53 54 55 53 51 50
69 69 69 70 68 68 68 67 65 62 61 62 63 63 63 61 62 61 60 61 63 63 62 62 62 62 63 60 59 57 56 56 57 57 56 55 54 54 54 52 52 53 54
69 69 69 68 68 68 67 66 65 63 62 63 63 63 64 63 62 61 61 62 62 61 61 62 62 61 60 57 57 55 55 54 54 54 53 52 52 52 53 52 51 51 51
68 68 68 68 68 68 67 67 66 64 64 63 64 64 63 63 61 60 61 63 61 60 61 61 60 59 58 55 55 54 53 53 53 53 52 52 53 53 54 55 53 53 52
67 68 68 68 68 68 67 66 65 64 63 64 63 64 63 64 63 60 60 62 58 58 60 60 59 59 55 52 52 53 53 53 52 51 48 44 46 47 48 50 51 49 46
68 68 68 68 67 67 66 65 65 64 64 63 63 64 64 64 64 59 59 58 60 60 58 57 58 54 52 51 51 50 49 47 48 46 43 43 44 45 44 45 48 49 47
68 68 68 67 67 66 65 65 65 65 64 64 64 63 63 63 62 59 58 58 59 60 58 52 52 50 50 50 49 47 46 47 47 43 42 43 43 43 44 44 44 46 49
67 67 67 66 66 66 66 65 65 65 64 64 63 61 61 60 59 58 57 55 55 56 52 53 51 50 50 48 49 48 48 46 44 43 42 41 41 40 38 35 32 35 45
66 66 65 66 65 62 58 56 61 58 58 61 57 57 58 57 58 56 55 54 54 53 53 52 50 49 49 49 49 48 46 44 42 41 40 39 38 35 32 31 33 40 47
65 64 63 63 62 61 59 55 48 49 51 54 56 58 54 54 51 50 48 47 46 46 47 47 47 47 47 46 46 44 42 41 40 40 38 36 33 31 30 31 36 41 47
61 61 59 58 58 58 56 54 53 50 47 47 49 50 50 47 45 45 44 43 44 45 46 45 46 46 46 46 43 40 38 38 41 37 35 33 30 29 28 31 36 42 45
56 56 55 54 54 54 54 53 53 53 52 49 45 46 44 44 44 44 44 45 45 45 43 43 44 45 45 43 40 38 37 36 35 34 32 29 27 27 27 28 35 42 44
55 53 52 52 53 54 54 55 54 53 51 49 46 44 43 43 43 43 43 42 40 39 39 40 41 41 40 40 39 38 36 33 31 32 29 27 26 26 25 26 30 39 41
56 56 53 52 55 55 55 53 51 52 51 49 48 48 47 44 42 43 43 41 39 37 37 37 38 39 40 40 36 33 30 30 30 28 27 27 26 26 25 25 25 32 39
53 55 54 51 51 51 51 50 50 49 49 49 48 48 46 43 42 41 40 41 40 38 39 38 38 39 38 34 30 28 28 28 27 26 26 26 26 25 25 25 25 25 33
52 51 50 50 51 51 51 51 50 49 48 47 47 47 46 45 42 41 41 41 40 41 39 40 39 36 31 26 25 27 27 26 26 26 26 26 26 25 25 25 25 25 26
51 52 51 51 51 52 51 49 49 48 47 47 46 46 45 43 43 42 42 41 41 40 39 39 37 32 26 22 25 29 28 26 26 28 27 27 27 26 26 25 25 26 26
52 51 51 52 52 51 49 50 49 49 48 47 45 45 45 44 43 43 42 41 40 39 38 36 32 26 26 21 25 26 27 29 29 28 30 28 28 28 26 25 25 26 26
48 49 49 49 50 50 49 50 49 50 48 46 45 44 42 41 41 41 41 40 40 39 37 34 29 27 26 23 23 24 27 23 30 27 29 28 29 29 26 24 25 24 26
44 46 47 47 48 50 50 49 50 49 46 44 45 40 38 38 39 39 40 39 39 38 36 34 29 27 23 21 22 20 17 18 28 26 26 27 27 25 24 23 24 21 23

GFSGL_sfc_30mbdewp_030.txt.gz
Dewpoint
75 75 75 75 75 74 72 72 72 71 68 70 70 69 69 69 68 68 65 65 64 63 62 62 62 62 61 60 62 60 59 58 56 56 58 58 60 60 60 61 62 60 61
74 74 75 75 75 75 73 73 73 72 71 70 69 69 69 68 68 68 65 63 65 65 64 63 63 63 62 63 61 61 60 59 57 56 58 59 57 60 62 61 61 59 59
72 73 74 74 74 74 74 72 73 73 72 70 70 69 69 68 68 68 67 65 65 62 64 63 63 63 62 61 61 61 60 59 59 57 58 59 57 58 58 60 60 61 60
70 71 72 74 74 74 74 74 73 74 73 70 70 69 68 67 67 67 67 66 64 63 64 64 63 63 62 62 61 60 61 60 60 58 57 57 57 58 57 56 56 58 57
67 70 72 74 74 74 74 74 74 74 73 72 69 69 68 66 67 66 67 66 65 64 63 64 63 63 63 63 61 62 61 60 60 58 56 55 55 55 55 55 56 56 56
65 68 70 72 74 74 74 74 74 73 73 71 69 68 67 64 63 62 66 65 65 64 63 64 64 62 61 61 61 61 61 59 58 58 59 56 56 57 57 57 57 55 53
66 67 69 72 74 74 74 74 74 73 72 70 68 67 65 65 60 60 64 65 64 64 65 64 64 63 64 63 61 61 62 62 61 60 58 58 58 57 58 57 57 57 55
67 68 70 73 74 74 74 74 73 73 71 69 67 66 65 66 63 61 62 63 63 64 64 65 64 65 65 64 62 61 61 63 62 62 61 60 61 59 59 56 54 54 54
68 71 72 73 74 74 74 73 73 73 70 69 67 66 66 66 63 61 59 61 61 62 63 64 65 66 65 62 61 60 61 60 60 60 60 60 59 54 53 54 52 51 50
70 70 73 74 74 74 73 72 73 73 70 68 66 66 66 66 64 61 60 62 62 63 64 64 64 65 64 61 60 60 59 59 59 59 59 57 56 55 54 55 53 52 52
71 73 74 74 74 74 72 71 71 71 70 68 66 66 66 66 66 63 60 64 65 64 63 63 65 63 61 60 59 60 60 57 56 56 55 52 52 53 53 55 57 56 54
72 73 73 74 72 72 71 70 70 69 68 67 66 65 66 66 66 63 61 61 64 64 63 62 62 61 60 58 57 58 53 52 52 52 50 50 50 49 49 49 51 51 51
72 72 72 71 71 71 70 70 68 67 66 66 66 65 65 67 67 64 60 59 60 62 60 58 57 58 57 56 56 52 50 51 51 50 50 50 47 48 47 46 49 51 52
71 72 72 70 70 69 68 67 66 65 66 66 65 65 65 66 64 62 61 59 59 60 56 55 55 54 54 54 53 52 51 52 52 51 49 48 49 45 44 44 40 39 36
71 70 69 68 67 62 57 58 65 60 62 65 65 65 64 64 63 62 61 61 60 60 60 59 54 54 54 53 53 54 53 53 52 52 48 46 44 44 42 40 38 35 37
68 67 67 66 63 60 59 56 52 52 53 55 58 61 54 56 56 55 53 52 52 54 55 58 57 56 55 53 53 52 53 53 51 49 47 44 44 41 39 38 36 38 36
67 66 66 65 64 63 61 59 55 51 48 50 53 54 55 51 49 49 48 47 47 49 53 52 50 50 52 50 51 50 48 49 46 44 44 44 41 40 36 35 35 35 36
66 65 64 63 63 62 61 60 57 55 54 52 48 49 48 47 47 47 46 47 47 46 47 47 46 47 48 50 47 45 45 45 44 43 40 37 37 36 34 33 34 33 32
63 61 59 59 59 58 58 57 55 55 54 51 48 46 45 44 44 44 44 47 47 45 46 44 42 42 44 44 45 45 44 43 38 36 36 37 36 32 32 33 31 31 30
57 54 55 54 53 53 53 51 51 53 53 50 50 48 47 45 44 44 43 46 45 42 41 40 40 42 43 43 44 42 40 38 37 39 38 33 33 32 31 30 30 31 31
53 51 52 53 51 51 52 51 50 51 52 51 50 50 48 48 47 46 47 46 44 42 42 42 42 42 42 42 40 35 33 33 33 31 31 32 32 31 33 30 31 30 30
52 50 50 50 51 53 52 51 50 48 49 51 52 49 47 48 45 45 45 44 44 45 43 43 42 42 41 36 32 30 31 31 31 31 31 32 32 33 32 32 32 31 30
55 53 55 56 54 53 53 54 53 51 51 50 50 49 47 47 44 47 46 45 44 44 44 42 41 40 38 33 29 30 32 33 32 32 33 33 33 34 33 33 31 30 29
52 52 56 57 53 51 53 52 50 50 50 50 49 48 48 47 44 46 46 45 45 43 43 42 39 36 35 32 28 28 33 36 31 33 32 34 35 34 34 32 30 29 30
52 50 52 56 55 53 51 50 48 50 48 50 49 49 48 47 46 45 45 46 46 44 43 42 40 37 34 31 31 30 24 22 31 23 29 31 35 37 30 29 29 29 28
48 48 47 48 49 49 49 50 50 50 50 50 48 48 48 48 46 45 45 45 44 42 42 42 40 37 32 32 31 27 22 19 26 25 27 28 33 35 29 28 28 28 27

GFSGL_sfc_30mbdewp_033.txt.gz
Dewpoint
72 72 73 73 74 73 72 72 71 69 70 69 70 70 69 69 67 67 65 65 65 62 64 62 63 62 60 60 62 59 59 58 56 55 58 59 61 59 59 61 61 60 59
73 73 73 73 74 74 73 71 71 70 70 70 69 70 69 69 68 67 65 65 63 64 63 62 61 61 60 60 60 60 60 60 58 56 57 57 57 57 60 59 61 61 60
73 73 74 74 74 75 74 73 72 71 71 70 69 69 69 68 68 67 66 64 65 64 63 62 62 61 62 62 62 61 61 60 60 58 57 59 58 58 58 60 60 60 60
73 73 73 74 74 74 75 73 73 73 71 70 69 68 68 69 68 68 67 65 64 65 65 64 63 62 62 62 60 60 61 60 60 59 58 57 57 56 58 55 55 57 57
71 72 73 74 74 74 74 74 72 73 72 70 69 69 69 68 67 68 67 66 65 64 64 64 64 64 64 63 61 60 61 60 58 57 56 56 55 55 55 56 56 56 56
69 71 72 72 74 74 74 74 74 72 73 72 70 69 68 68 67 67 67 67 66 65 63 64 63 64 64 64 63 62 61 59 57 57 56 57 57 56 58 57 57 55 54
64 68 71 72 73 74 74 73 74 72 74 72 70 69 68 67 65 66 66 66 66 65 64 64 64 63 63 62 61 61 61 61 60 58 57 57 57 57 58 57 56 57 56
65 67 70 71 73 74 74 74 74 73 73 72 70 68 67 67 64 63 64 65 65 65 65 65 64 64 64 62 61 60 60 61 61 61 60 59 59 59 60 58 57 55 54
65 66 69 71 72 73 73 74 74 73 72 70 69 68 66 66 65 62 61 63 64 64 65 66 65 64 65 64 62 61 60 60 62 61 62 61 60 61 61 57 53 52 51
63 67 69 71 72 74 74 74 73 73 71 69 68 67 66 65 64 63 61 62 62 62 62 63 63 64 64 64 62 60 59 59 59 60 59 58 57 56 55 55 53 52 51
67 72 72 73 74 74 74 73 73 71 70 69 67 66 66 65 65 62 60 62 61 61 62 63 64 63 62 62 61 60 60 59 57 54 53 52 52 52 52 53 55 55 53
72 74 75 75 74 73 72 72 72 71 69 67 66 66 66 66 66 63 62 63 64 64 64 63 63 63 61 60 60 60 58 56 54 52 51 50 50 50 49 49 50 53 56
74 74 74 73 73 71 70 70 70 69 68 66 65 65 65 66 66 64 62 61 61 64 63 61 60 59 59 58 58 58 56 53 51 50 50 50 49 47 48 45 45 41 40
73 72 71 71 70 70 69 68 68 66 66 66 65 65 65 65 65 63 61 58 58 58 57 56 57 57 57 57 57 55 52 51 50 51 51 50 49 44 43 44 40 37 35
71 70 69 67 64 62 60 63 65 63 65 65 65 65 64 64 64 63 61 60 60 60 58 56 54 54 53 53 53 53 52 51 52 52 52 49 44 43 43 40 38 36 34
68 68 65 63 62 60 59 56 49 52 55 59 63 62 58 62 61 60 59 59 59 59 58 58 55 54 53 54 53 53 54 53 53 53 50 44 42 43 39 39 38 35 37
67 66 64 63 62 61 59 57 56 52 50 52 53 55 57 57 56 55 52 49 50 54 54 55 56 55 53 54 55 54 52 53 52 46 45 45 42 37 38 36 33 35 34
66 65 65 64 63 61 59 57 55 55 55 53 47 49 49 49 49 49 48 49 49 48 51 50 48 49 52 51 49 47 45 44 42 38 36 35 34 37 35 32 33 33 32
65 65 65 64 63 62 61 57 57 56 53 50 48 47 44 45 46 46 46 49 49 48 48 47 44 45 45 45 45 44 42 39 36 35 34 37 38 35 30 31 32 31 33
63 64 63 63 62 61 60 57 56 54 51 50 49 49 46 45 45 44 42 41 47 43 41 43 44 43 44 43 42 40 38 37 37 38 39 38 35 31 30 33 30 31 33
55 56 54 56 56 56 57 56 56 53 51 51 50 48 46 46 45 43 42 45 45 45 43 42 42 42 42 42 41 35 33 33 36 34 32 32 32 32 34 31 31 34 33
55 52 53 52 52 52 52 54 56 53 52 51 51 48 46 48 48 47 47 48 46 44 44 43 42 42 36 33 31 30 31 35 34 32 32 32 32 35 34 33 34 33 31
59 58 56 54 54 54 56 54 53 53 53 52 52 48 47 47 49 49 49 47 47 45 44 43 43 41 36 31 28 31 33 34 35 35 33 33 34 35 36 33 34 31 28
58 58 58 56 55 54 53 54 54 52 52 52 50 49 48 48 48 47 46 45 46 46 44 41 40 40 34 29 29 34 35 33 32 28 26 29 31 34 36 35 30 31 29
59 59 59 55 52 53 53 53 52 52 51 51 50 49 49 48 48 47 47 47 45 45 43 41 39 35 32 31 29 27 27 28 24 22 29 27 27 32 35 28 27 31 30
51 56 55 53 52 52 51 52 51 52 51 51 50 50 50 49 47 47 47 46 45 46 44 42 40 38 33 33 28 25 23 22 22 21 21 22 27 31 35 29 29 31 30

GFSGL_sfc_30mbdewp_036.txt.gz
Dewpoint
69 70 69 69 68 70 72 72 69 69 67 66 69 69 68 67 66 65 64 64 62 62 64 62 61 61 61 59 61 59 59 57 54 55 57 58 59 59 59 61 60 59 60
69 70 70 70 70 69 69 71 72 69 69 67 67 69 69 68 67 66 64 64 64 62 62 63 61 62 61 60 60 59 58 59 57 55 57 57 58 58 58 59 59 62 62
70 70 71 71 71 71 70 70 72 71 69 69 68 69 69 68 67 66 65 64 63 64 63 62 62 61 60 60 60 59 60 60 60 58 57 59 58 58 57 59 59 57 57
70 70 70 71 72 72 72 71 70 71 70 69 69 69 69 68 68 67 66 65 64 64 64 64 63 62 61 60 61 61 61 60 60 59 58 58 57 57 58 55 54 56 56
70 71 70 71 72 73 73 73 72 71 70 70 69 68 69 68 68 67 66 65 64 64 64 65 64 63 62 62 62 61 60 60 59 58 57 55 55 55 55 55 56 57 57
70 71 71 72 73 73 73 74 73 72 71 71 69 68 68 68 67 67 67 66 65 64 63 64 64 65 64 63 63 62 61 60 59 58 56 55 54 56 57 57 57 56 54
69 70 71 72 73 73 73 73 74 72 73 71 69 69 68 68 67 67 67 67 66 65 64 63 64 64 64 64 64 64 63 62 60 58 56 55 55 56 57 56 56 56 55
69 70 71 72 72 73 73 73 74 73 72 72 69 69 68 68 67 66 66 67 66 66 65 64 64 64 64 63 63 62 61 61 61 61 59 58 59 59 58 58 58 57 56
65 68 70 72 72 73 73 73 73 73 72 72 71 69 69 68 66 65 65 66 65 65 65 65 65 64 64 63 62 61 60 61 62 61 61 61 61 60 60 59 57 55 52
63 64 69 71 71 72 73 73 73 73 73 72 71 70 69 68 66 63 62 63 64 64 64 65 65 65 64 64 63 62 61 60 60 60 60 59 58 57 57 57 55 52 52
62 64 65 70 71 72 73 73 73 73 72 71 70 69 68 67 65 64 61 62 62 62 63 62 63 62 62 63 63 62 61 60 59 57 55 54 52 51 51 52 54 54 51
62 64 66 69 70 72 73 74 73 72 70 69 67 66 66 65 65 62 61 62 63 62 62 63 63 63 62 62 60 61 60 59 57 56 53 50 49 50 48 49 47 50 55
64 67 68 70 71 73 73 73 72 71 69 67 66 66 65 66 64 62 61 61 62 63 64 64 62 61 59 58 59 60 59 57 55 52 49 49 50 49 48 44 43 40 39
67 72 73 73 73 73 73 72 70 69 67 66 65 65 65 65 65 63 61 58 59 61 59 59 58 59 58 58 57 58 57 56 53 50 49 50 51 47 43 43 38 37 36
73 73 72 70 71 66 62 66 68 65 67 66 66 65 64 64 65 64 61 60 60 59 58 56 55 54 55 54 55 56 55 53 51 51 51 51 48 43 42 40 39 38 34
70 68 66 64 62 60 58 55 51 58 64 64 65 64 62 64 62 61 59 59 59 58 58 57 55 53 53 53 52 52 52 52 51 51 52 49 44 43 40 38 38 34 33
66 64 63 62 61 60 59 60 58 51 52 54 58 60 62 60 59 58 57 57 58 58 57 57 56 55 54 54 54 53 53 53 53 51 45 44 42 37 37 35 33 33 32
64 64 63 62 61 60 59 58 58 58 57 54 48 53 56 56 54 52 50 51 53 52 53 53 51 50 51 51 51 50 49 44 39 37 37 35 35 36 34 31 32 32 31
65 65 64 63 62 61 59 58 56 55 53 51 49 48 47 48 48 48 50 51 50 49 47 46 48 49 47 46 44 44 42 40 38 36 34 36 38 34 30 31 33 31 33
64 64 64 62 61 60 59 57 55 53 52 52 53 51 48 49 50 49 48 46 46 46 44 43 44 44 43 43 41 40 39 37 37 37 39 35 33 32 32 33 31 32 33
62 63 63 63 62 59 58 57 55 53 52 52 52 50 49 51 49 47 45 43 43 41 42 42 43 43 43 42 39 36 33 33 36 34 32 32 32 32 35 33 34 34 32
58 57 58 60 60 59 57 56 54 52 51 51 50 49 47 48 47 45 42 44 46 43 43 43 42 42 42 42 38 33 33 34 33 33 32 33 34 35 36 35 34 32 30
57 57 57 57 57 56 56 57 55 53 51 51 51 49 46 47 47 46 45 47 46 44 44 43 41 38 35 33 31 32 33 32 33 34 32 32 33 33 35 34 33 29 29
54 54 54 56 56 56 54 54 56 55 54 52 51 49 48 47 48 49 49 49 48 45 44 43 42 39 34 30 30 33 35 35 34 31 27 25 30 31 33 33 29 29 30
56 56 54 54 56 56 56 54 54 54 54 52 52 51 49 48 48 49 48 49 48 46 43 42 41 37 32 29 30 34 33 32 27 24 26 25 21 29 33 33 29 31 31
57 57 58 59 57 55 54 53 52 52 52 52 51 50 49 48 48 48 47 46 46 45 43 41 39 35 31 30 30 30 29 25 24 22 20 19 22 30 33 34 31 30 32